Regional Weather Roundup
Issued by NWS Jackson, KY

Home | Current Version | Previous Version | Graphics & Text | Print | Product List | Glossary On
Versions: 1 2 3 4 5 6 7 8 9 10 11 12 13 14 15 16 17 18 19 20 21 22 23 24 25 26 27 28 29 30 31 32 33 34 35 36 37 38 39 40 41 42 43 44 45 46 47 48 49 50
000
ASUS43 KJKL 140411
RWRJKL

EAST KENTUCKY HOURLY WEATHER ROUNDUP
NATIONAL WEATHER SERVICE JACKSON KY
1200 AM EDT MON JUL 14 2014

NOTE: "FAIR" INDICATES FEW OR NO CLOUDS BELOW 12,000 FEET WITH
NO SIGNIFICANT WEATHER AND/OR OBSTRUCTIONS TO VISIBILITY.

* THESE REPORTS ARE NOT UNDER NWS QUALITY CONTROL AND MAY NOT
  REPORT WEATHER SUCH AS PRECIPITATION AND FOG.

KYZ079-080-083-085-087-088-110-112-115-119-120-140500
...EASTERN KENTUCKY...

CITY           SKY/WX    TMP DP  RH WIND       PRES   REMARKS
JACKSON        MOCLDY    79  67  66 VRB3      30.00F
LONDON         PTCLDY    81  68  64 SW7       30.02F
SOMERSET*      PTCLDY    81  66  61 S5        30.01F
MONTICELLO*    CLEAR     81  72  74 SW8       30.03S
WILLIAMSBURG*  CLEAR     77  68  73 CALM      30.03F
MIDDLESBORO*   PTCLDY    72  70  93 CALM      30.05S
HARLAN APT*    PTCLDY    70  70 100 MISG      30.06S
HAZARD APT*    CLEAR     79  68  69 SW7       30.01
BLACK MTN*       N/A     66  64  94 S8          N/A
PIKEVILLE APT* CLEAR     79  66  65 CALM      30.01F
BIG SANDY*     MOCLDY    80  68  66 SW5       29.99S
MOREHEAD APT*  LGT RAIN  72  70  94 NE5       29.99F
$$

KYZ035-036-041-042-044-050-067-078-099-140500
...CENTRAL KENTUCKY...

CITY           SKY/WX    TMP DP  RH WIND       PRES   REMARKS
MT STERLING*   MOCLDY    72  72 100 CALM      29.98F
FLEMING/MASON* RAIN      72  70  94 W5        29.99R
DANVILLE*      PTCLDY    77  68  73 CALM      29.99F
RICHMOND*      PTCLDY    81  64  57 SW7       29.98S
LEXINGTON      CLOUDY    76  71  85 N9        29.99R
FRANKFORT      TSTM      74  70  87 SW6       29.99R
$$

KYZ091>093-OHZ055-061-077-WVZ005-015-034-035-042-140500
...SOUTHERN OHIO/WEST VIRGINIA...

CITY           SKY/WX    TMP DP  RH WIND       PRES   REMARKS
COVINGTON      CLOUDY    73  71  93 SW5       29.95F
COLUMBUS       PTCLDY    73  70  90 S7        29.94R
DAYTON         PTCLDY    73  70  90 SW7       29.95F
WILMINGTON     MOCLDY    70  68  93 S3        29.95F FOG
HUNTINGTON     TSTM      73  71  93 SW5       29.99R FOG
CHARLESTON     MOCLDY    74  72  93 E7        29.97S
PINEVILLE*     MOCLDY    71  70  97 MISG      30.09F
BECKLEY        PTCLDY    73  64  73 SW6       30.08F
BLUEFIELD      MOCLDY    74  63  68 SW7       30.12S
$$

VAZ002-007-008-TNZ017-027-036-066-071-140500
...SOUTHWEST VIRGINIA/EAST TENNESSEE...

CITY           SKY/WX    TMP DP  RH WIND       PRES   REMARKS
WISE*          PTCLDY    73  63  68 SW14      30.12F
JONESVILLE*      N/A     68  68 100 CALM      30.07F
ABINGDON*      PTCLDY    73  69  87 CALM      30.10F
BRISTOL        MOCLDY    73  68  84 CALM      30.07S
KNOXVILLE      PTCLDY    77  71  82 SW9       30.04S
OAK RIDGE      PTCLDY    77  73  87 CALM      30.05S
CROSSVILLE     PTCLDY    73  68  84 VRB3      30.11S
NASHVILLE      PTCLDY    83  72  69 SW5       30.01S
$$

...KEY TO REMARKS...
VSB - VISIBILITY IN MILES
WCI - WIND CHILL INDEX
HX  - HEAT INDEX

$$


USA.gov is the U.S. government's official web portal to all federal, state and local government web resources and services.